EW5770 Weather Reports


time (UTC)temp
F
wind
direction
speed
knots
gust
knots
rain 1hr
in
rain 24hr
in
rain mn
in
humidity
%
barometer
mb
20260903173219 80 0 0.0 0.0 0.00 0.00 0.00 71 1017.3
20260903172219 81 0 0.0 0.0 0.00 0.00 0.00 70 1017.3
20260903171219 82 0 0.0 0.0 0.00 0.00 0.00 68 1017.3
20260903170219 83 0 0.0 0.0 0.00 0.00 0.00 65 1017.2
20260903165219 83 0 0.0 0.0 0.00 0.00 0.00 65 1017.2
20260903163219 85 0 0.0 0.0 0.00 0.00 0.00 61 1017.2
20260903162220 86 140 0.0 0.9 0.00 0.00 0.00 61 1017.1
20260903161219 85 0 0.0 0.0 0.00 0.00 0.00 63 1017.1
20260903154218 85 0 0.0 0.0 0.00 0.00 0.00 64 1017.0
20260903152219 85 225 0.0 0.9 0.00 0.00 0.00 64 1017.2
20260903151220 85 233 0.0 0.9 0.00 0.00 0.00 65 1017.2
20260903150219 85 232 0.0 0.9 0.00 0.00 0.00 67 1017.1
20260903145219 84 241 0.0 0.9 0.00 0.00 0.00 68 1017.2
20260903144220 85 246 0.0 0.9 0.00 0.00 0.00 66 1017.2
20260903143220 85 0 0.0 0.0 0.00 0.00 0.00 66 1017.4
20260903142219 85 6 0.0 0.9 0.00 0.00 0.00 66 1017.5
20260903141219 84 239 0.0 0.9 0.00 0.00 0.00 68 1017.5
20260903140219 84 235 0.0 1.7 0.00 0.00 0.00 69 1017.5
20260903135219 85 242 0.9 2.6 0.00 0.00 0.00 69 1017.6
20260903134219 85 244 0.0 1.7 0.00 0.00 0.00 68 1017.7
20260903131219 85 238 0.0 0.9 0.00 0.00 0.00 68 1017.7
20260903130219 85 250 0.0 0.9 0.00 0.00 0.00 69 1017.7
20260903125219 85 254 0.0 0.9 0.00 0.00 0.00 68 1017.6
20260903124219 85 243 0.0 0.9 0.00 0.00 0.00 68 1017.7
20260903123219 85 218 0.0 0.9 0.00 0.00 0.00 68 1017.5
20260903122219 86 238 0.0 7.0 0.00 0.00 0.00 67 1017.6
20260903121219 87 231 0.0 0.9 0.00 0.00 0.00 64 1017.5
20260903120219 87 202 0.0 3.5 0.00 0.00 0.00 63 1017.5
20260903114220 87 232 0.0 1.7 0.00 0.00 0.00 63 1017.7
20260903113219 87 234 0.0 0.9 0.00 0.00 0.00 63 1017.8
20260903112219 87 223 0.0 0.9 0.00 0.00 0.00 62 1017.7
20260903111220 88 173 0.0 2.6 0.00 0.00 0.00 62 1017.8
20260903110219 87 168 0.0 0.9 0.00 0.00 0.00 62 1018.1
20260903105219 86 217 0.0 0.9 0.00 0.00 0.00 63 1018.1
20260903104219 87 226 0.0 0.9 0.00 0.00 0.00 62 1018.2
20260903103219 88 222 0.0 0.9 0.00 0.00 0.00 60 1018.3
20260903102219 89 0 0.0 0.0 0.00 0.00 0.00 55 1018.4
20260903101220 87 0 0.0 0.0 0.00 0.00 0.00 55 1018.4
20260903100219 86 0 0.0 0.0 0.00 0.00 0.00 56 1018.5
20260903095220 85 124 0.0 0.9 0.00 0.00 0.00 59 1018.5
20260903094219 85 98 0.0 0.9 0.00 0.00 0.00 57 1018.5
20260903091220 84 0 0.0 0.0 0.00 0.00 0.00 61 1018.8
20260903090220 83 106 0.0 0.9 0.00 0.00 0.00 63 1018.9
20260903085220 82 97 0.0 0.9 0.00 0.00 0.00 64 1018.8
20260903084220 81 70 0.0 0.9 0.00 0.00 0.00 65 1018.7
20260903083221 81 90 0.0 0.9 0.00 0.00 0.00 66 1018.6
20260903082219 80 97 0.0 0.9 0.00 0.00 0.00 68 1018.7
20260903081220 79 0 0.0 0.0 0.00 0.00 0.00 70 1018.7
20260903075219 76 0 0.0 0.0 0.00 0.00 0.00 74 1018.6
20260903074219 74 0 0.0 0.0 0.00 0.00 0.00 76 1018.6
20260903073219 74 0 0.0 0.0 0.00 0.00 0.00 76 1018.6
20260903072220 73 0 0.0 0.0 0.00 0.00 0.00 77 1018.7
20260903071219 72 0 0.0 0.0 0.00 0.00 0.00 78 1018.7
20260903070220 72 0 0.0 0.0 0.00 0.00 0.00 79 1018.6
20260903065220 71 0 0.0 0.0 0.00 0.00 0.00 80 1018.6
20260903064219 70 0 0.0 0.0 0.00 0.00 0.00 82 1018.6
20260903063221 69 0 0.0 0.0 0.00 0.00 0.00 83 1018.6
20260903061220 69 0 0.0 0.0 0.00 0.00 0.00 84 1018.5
20260903060219 68 0 0.0 0.0 0.00 0.00 0.00 85 1018.5
20260903055220 68 0 0.0 0.0 0.00 0.00 0.00 85 1018.5
20260903054220 68 0 0.0 0.0 0.00 0.00 0.00 86 1018.4
20260903052219 67 0 0.0 0.0 0.00 0.00 0.00 88 1018.1
20260903051219 67 0 0.0 0.0 0.00 0.00 0.00 88 1018.1
20260903045219 68 0 0.0 0.0 0.00 0.00 0.00 87 1018.0
20260903044219 67 0 0.0 0.0 0.00 0.00 0.00 87 1018.0
20260903043219 67 0 0.0 0.0 0.00 0.00 0.00 88 1017.9
20260903042219 67 0 0.0 0.0 0.00 0.00 0.00 88 1017.9
20260903041219 68 0 0.0 0.0 0.00 0.00 0.00 86 1017.8
20260903040220 68 0 0.0 0.0 0.00 0.00 0.00 87 1017.8
20260903035221 68 0 0.0 0.0 0.00 0.00 0.00 88 1017.8
20260903034220 68 0 0.0 0.0 0.00 0.00 0.00 89 1017.7
20260903033220 68 0 0.0 0.0 0.00 0.00 0.00 89 1017.7
20260903032219 68 0 0.0 0.0 0.00 0.00 0.00 87 1017.7
20260903031220 69 0 0.0 0.0 0.00 0.00 0.00 86 1017.8
20260903030220 69 0 0.0 0.0 0.00 0.00 0.00 86 1017.8
20260903025220 69 0 0.0 0.0 0.00 0.00 0.00 86 1017.8
20260903024219 69 0 0.0 0.0 0.00 0.00 0.00 87 1017.9
20260903023220 69 0 0.0 0.0 0.00 0.00 0.00 87 1017.8
20260903022219 69 0 0.0 0.0 0.00 0.00 0.00 86 1017.8
20260903021220 69 0 0.0 0.0 0.00 0.00 0.00 87 1017.7
20260903020220 70 0 0.0 0.0 0.00 0.00 0.00 86 1017.8
20260903015219 70 0 0.0 0.0 0.00 0.00 0.00 86 1017.7
20260903014220 70 0 0.0 0.0 0.00 0.00 0.00 86 1017.7
20260903013220 70 0 0.0 0.0 0.00 0.00 0.00 87 1017.8
20260903012220 70 0 0.0 0.0 0.00 0.00 0.00 86 1017.8
20260903011220 70 0 0.0 0.0 0.00 0.00 0.00 86 1017.8
20260903010220 71 0 0.0 0.0 0.00 0.00 0.00 86 1017.8
20260903004219 71 0 0.0 0.0 0.00 0.00 0.00 87 1017.7
20260903003221 71 0 0.0 0.0 0.00 0.00 0.00 86 1017.8
20260903002220 71 0 0.0 0.0 0.00 0.00 0.00 87 1017.9
20260903001220 72 0 0.0 0.0 0.00 0.00 0.00 87 1018.0
20260903000220 72 0 0.0 0.0 0.00 0.00 0.00 87 1018.0
20260902235220 72 0 0.0 0.0 0.00 0.00 0.00 87 1018.0
20260902233220 72 0 0.0 0.0 0.00 0.00 0.00 89 1018.1
20260902231219 73 0 0.0 0.0 0.00 0.00 0.00 88 1017.8
20260902230220 73 0 0.0 0.0 0.00 0.00 0.00 88 1017.9
20260902224220 73 0 0.0 0.0 0.00 0.00 0.00 88 1017.8
20260902223220 74 0 0.0 0.0 0.00 0.00 0.00 87 1017.7
20260902221220 74 0 0.0 0.0 0.00 0.00 0.00 87 1017.7
20260902220226 74 0 0.0 0.0 0.00 0.00 0.00 88 1017.7
20260902215220 74 0 0.0 0.0 0.00 0.00 0.00 88 1017.7
20260902213220 75 0 0.0 0.0 0.00 0.00 0.00 87 1017.6
20260902211219 75 0 0.0 0.0 0.00 0.00 0.00 86 1017.6
20260902210220 76 0 0.0 0.0 0.00 0.00 0.00 86 1017.5
20260902205220 76 0 0.0 0.0 0.00 0.00 0.00 85 1017.5
20260902204219 76 0 0.0 0.0 0.00 0.00 0.00 85 1017.4
20260902203219 76 0 0.0 0.0 0.00 0.00 0.00 85 1017.4
20260902202221 76 0 0.0 0.0 0.00 0.00 0.00 85 1017.5
20260902201220 77 0 0.0 0.0 0.00 0.00 0.00 84 1017.4
20260902200220 77 0 0.0 0.0 0.00 0.00 0.00 84 1017.4
20260902195220 77 0 0.0 0.0 0.00 0.00 0.00 84 1017.3
20260902194220 77 0 0.0 0.0 0.00 0.00 0.00 82 1017.3
20260902193220 78 0 0.0 0.0 0.00 0.00 0.00 82 1017.3
20260902192220 78 0 0.0 0.0 0.00 0.00 0.00 82 1017.2
20260902191220 78 0 0.0 0.0 0.00 0.00 0.00 82 1017.2
20260902190220 78 0 0.0 0.0 0.00 0.00 0.00 82 1017.2
20260902184221 78 0 0.0 0.0 0.00 0.00 0.00 81 1017.1
20260902183220 78 0 0.0 0.0 0.00 0.00 0.00 81 1017.0
20260902182220 78 0 0.0 0.0 0.00 0.00 0.00 81 1016.9
20260902181220 79 0 0.0 0.0 0.00 0.00 0.00 80 1016.9
20260902180221 79 0 0.0 0.0 0.00 0.00 0.00 80 1016.8